User: anonymous   Login
Location: Unspecified
(0.0000°N, 0.0000°E)
Time: 05:22:17
(UTC+00:00)
Language:

AO-27 - Orbit

View from above orbital plane
View from above orbital plane
View from above satellite
View from above satellite

Ground track
Ground track

The orbit data is extracted from the following two-line orbital elements,

1 22825U 93061C   18146.53057082 -.00000004  00000-0  16265-4 0  9997
2 22825  98.8610 122.2554 0009335  54.3860 305.8189 14.30030833286476
Epoch (UTC): 26 May 2018 12:44:01
Eccentricity: 0.0009335
inclination: 98.8610°
perigee height: 785 km
apogee height: 798 km
right ascension of ascending node: 122.2554°
argument of perigee: 54.3860°
revolutions per day: 14.30030833
mean anomaly at epoch: 305.8189°
orbit number at epoch: 28647

The dashed part of the orbit path shows where the satellite is in the earth's shadow,  

DLR